#timestamp,LO_Frequency,Hit,StdDev 
1622286015.7,286046998.0,N
1622286035.5,286046996.7,N
1622286055.3,286046998.7,N
1622286075.2,286047000.3,N
1622286095.0,286046999.8,N
1622286095.9,286046999.8,N
1622286115.8,286047002.0,N
1622286165.6,286047000.6,E
1622286175.5,286046998.4,N
1622286195.4,286046995.3,P
1622286215.2,286046995.3,P
1622286235.1,286046999.4,N
1622286236.0,286046999.4,N
1622286255.8,286046999.6,N
1622286275.6,286046996.5,N
1622286295.5,286046999.2,N
1622286315.3,286046998.6,N
1622286335.1,286046999.3,N
1622286355.9,286047000.6,N
1622286375.7,286047000.8,N
1622286395.6,286046999.0,N
1622286415.4,286047001.2,N
1622286435.2,286047000.6,N
1622286455.1,286046998.9,N
1622286456.0,286046998.9,N
1622286475.8,286046998.5,N
1622286495.6,286046998.8,N
1622286515.5,286046997.2,N
1622286535.3,286046997.7,N
1622286555.2,286046995.1,Y
1622286575.9,286046998.0,P
1622286595.7,286046997.2,P
1622286615.6,286046999.5,N
1622286635.4,286046998.4,N
1622286655.2,286047000.9,N
1622286675.1,286046999.7,N
1622286676.0,286046999.7,N
1622286695.8,286047000.7,N
1622286715.7,286047000.8,N
1622286735.5,286046998.0,N
1622286755.3,286046997.0,N
1622286775.2,286046997.0,N
1622286795.0,286046998.8,N
1622286795.9,286046998.8,N
1622286815.7,286047000.7,N
1622286835.6,286046998.7,N
1622286855.4,286046999.3,N
1622286875.3,286046999.0,N
1622286895.1,286046996.2,Y
1622286915.8,286046995.6,P
1622286935.7,286046993.7,P
1622286955.5,286046995.1,N
1622286975.3,286046999.6,N
1622286995.2,286046999.1,N
1622287015.0,286046998.1,N
1622287015.9,286046998.1,N
1622287035.8,286047000.9,N
1622287055.6,286047000.0,N
1622287075.4,286046999.9,N
1622287095.3,286046998.7,N
1622287115.1,286046998.5,N
1622287135.9,286047000.6,N
1622287155.7,286047002.4,N
1622287175.5,286047002.0,N
1622287195.4,286047001.9,N
1622287215.2,286047001.2,N
1622287235.1,286047000.0,N
1622287236.0,286047000.0,N
1622287255.8,286046999.1,N
1622287275.6,286046998.6,N
1622287295.5,286047000.7,N
1622287315.3,286046998.2,N
1622287335.1,286047001.4,N
1622287355.9,286047004.3,N
1622287375.7,286047001.7,N
1622287395.6,286047003.7,N
1622287415.4,286047001.7,N
1622287435.2,286047002.9,N
1622287455.1,286047001.8,N
1622287456.0,286047001.8,N
1622287475.8,286047000.1,N
1622287495.7,286047001.1,N
1622287515.5,286046995.3,N
1622287535.3,286046998.7,N
1622287555.2,286046998.2,N
1622287575.0,286046999.9,N
1622287575.9,286046999.9,N
1622287595.8,286047000.6,N
1622287615.6,286047000.9,N
1622287635.4,286046999.0,N
1622287655.3,286046999.1,N
1622287675.1,286046998.6,N
1622287695.8,286046999.3,N
1622287715.7,286046997.0,N
1622287735.5,286046996.6,N
1622287755.4,286046995.3,N
1622287775.2,286046995.5,N
1622287795.0,286046995.4,N
1622287795.9,286046995.4,N
1622287815.8,286046995.1,N
1622287835.6,286046995.2,N
1622287855.5,286046995.5,N
1622287875.3,286046995.6,N
1622287895.1,286046997.9,N
1622287915.9,286046998.5,N
1622287935.7,286046999.5,N
1622287955.5,286046994.9,N
1622287975.4,286046997.6,N
1622287995.2,286046997.2,N
1622288015.1,286046995.5,N
1622288016.0,286046995.5,N
1622288035.8,286046995.5,N
1622288055.6,286046995.0,N
1622288075.5,286046994.1,Y
1622288095.3,286046995.5,P
1622288115.2,286046995.0,P
1622288135.9,286046993.8,P
1622288155.7,286046996.1,Y
1622288175.6,286047001.1,P
1622288195.4,286046997.1,N
1622288215.3,286046995.0,N
1622288235.1,286046996.5,N
1622288236.0,286046996.5,N
1622288255.8,286047001.1,N
1622288275.7,286047002.3,N
1622288295.5,286047002.2,N
1622288315.3,286047000.3,N
1622288335.2,286046999.6,N
1622288355.0,286046997.8,N
1622288355.9,286046997.8,N
1622288375.8,286046997.9,N
1622288395.6,286046994.9,N
1622288415.5,286046996.0,N
1622288435.3,286046995.2,N
1622288455.1,286046997.1,N
1622288475.9,286046998.9,N
1622288495.7,286046998.6,N
1622288515.6,286047000.8,N
1622288535.4,286046999.9,N
1622288555.2,286046999.1,N
1622288575.1,286046996.7,N
1622288576.0,286046996.7,N
1622288595.8,286046999.3,N
1622288615.7,286047000.8,N
1622288635.5,286046998.5,N
1622288655.3,286046998.6,N
1622288675.2,286046998.6,N
1622288695.9,286047000.9,N
1622288715.7,286046996.7,N
1622288735.6,286046998.8,N
1622288755.4,286046996.7,N
1622288775.3,286046996.6,N
1622288795.1,286046997.4,N
1622288796.0,286046997.4,N
1622288815.8,286047000.2,N
1622288835.7,286047000.5,N
1622288855.5,286047000.4,N
1622288875.3,286046999.4,N
1622288895.2,286046996.8,N
1622288915.0,286046997.4,N
1622288915.9,286046997.4,N
1622288935.8,286046999.2,N
1622288955.6,286046998.7,N
1622288975.4,286047000.5,N
1622288995.3,286046999.5,N
1622289015.1,286046998.6,N
1622289035.8,286047001.2,N
1622289055.7,286046998.5,N
1622289075.5,286047000.6,N
1622289095.4,286047002.4,N
1622289115.2,286046999.8,N
1622289135.0,286046998.5,N
1622289135.9,286046998.5,N
1622289155.8,286046998.8,N
1622289175.6,286046996.9,N
1622289195.4,286047001.2,N
1622289215.3,286047001.0,N
1622289235.1,286046998.5,N
1622289255.9,286047000.7,N
1622289275.7,286047002.3,N
1622289295.5,286047001.6,N
1622289315.4,286047001.3,N
1622289335.2,286047001.9,N
1622289355.0,286047002.0,N
1622289355.9,286047002.0,N
1622289375.8,286047001.9,N
1622289395.6,286047002.5,N
1622289415.5,286047002.4,N
1622289435.3,286047002.6,N
1622289455.1,286047001.6,N
1622289475.9,286047002.5,N
1622289495.7,286047000.3,N
1622289515.5,286047000.2,N
1622289535.4,286047001.6,N
1622289555.2,286047001.3,N
1622289575.1,286047001.5,N
1622289576.0,286047001.5,N
1622289595.8,286047000.2,N
